Regional Weather Roundup
Issued by NWS Goodland, KS

Home | Current Version | Previous Version | Text Only | Print | Product List | Glossary Off
Versions: 1 2 3 4 5 6 7 8 9 10 11 12 13 14 15 16 17 18 19 20 21 22 23 24 25 26 27 28 29 30 31 32 33 34 35 36 37 38 39 40 41 42 43 44 45 46 47 48 49 50

000
ASUS43 KGLD 132059
RWRGLD

GOODLAND FORECAST AREA HOURLY WEATHER ROUNDUP
NATIONAL WEATHER SERVICE GOODLAND KS
200 PM MST SAT FEB 13 2016

...OFFICIAL OBSERVATIONS...

CITY           SKY/WX    TMP DP  RH WIND       PRES   REMARKS
GOODLAND KS    CLOUDY    30  29  96 S16       30.01F FOG     WCI  19
HILL CITY KS   CLOUDY    34  20  56 SE13      30.14F
IMPERIAL NEB   CLOUDY    29  27  92 S13       30.02F WCI  19
MCCOOK NEB     CLOUDY    27  22  81 S15       30.10F HAZE    WCI  15
AKRON CO       CLOUDY    37  34  89 W6        29.94F
BURLINGTON CO  CLOUDY    31  29  92 S12       29.98F
LIMON CO       CLOUDY    42  34  73 N6        29.95F
$$

...UNOFFICIAL OBSERVATIONS...

CITY           SKY/WX    TMP DP  RH WIND       PRES   REMARKS
COLBY KS       CLOUDY    28  28 100 S15       30.07F FOG     WCI  17
GOVE KS          N/A     36  32  85 MISG        N/A
LENORA KS        N/A     29  32 100 MISG        N/A
NORTON KS      CLOUDY    28  18  64 SE14      30.12F WCI  17
SHARON SPRINGS   N/A     39  35  84 S12G20      N/A
KIT CARSON CO    N/A     32  30  92 MISG        N/A
YUMA CO          N/A     42  35  77 CALM        N/A
$$



USA.gov is the U.S. government's official web portal to all federal, state and local government web resources and services.